Weather History for K1YT - January, 2014

Change the Weather History Date:

Wednesday, January 15, 2014

  Actual Average (KYKM) Record (KYKM)
Temperature  
Mean Temperature 41 °F 31 °F  
Max Temperature 54 °F 38 °F 61 °F (2014)
Min Temperature 28 °F 23 °F -10 °F (1950)
Degree Days  
Heating Degree Days 24 34  
Month to date heating degree days 534  
Since 1 July heating degree days 3197  
Cooling Degree Days 0 0  
Month to date cooling degree days 0  
Year to date cooling degree days 0  
Moisture  
Dew Point 29 °F    
Average Humidity 71    
Maximum Humidity 94    
Minimum Humidity 43    
Precipitation  
Precipitation 0.00 in 0.04 in 0.67 in (1956)
Month to date precipitation 0.62  
Year to date precipitation 0.62  
Snow  
Snow 0.00 in 0.10 in 4.10 in (1971)
Month to date snowfall 3.2  
Year to date snowfall 3.2  
Since 1 July snowfall 16.2  
Snow Depth -    
Sea Level Pressure  
Sea Level Pressure 30.47 in    
Wind  
Wind Speed 4 mph (ESE)    
Max Wind Speed 15 mph    
Max Gust Speed 23 mph    
Visibility 12 miles    
Events      
T = Trace of Precipitation, MM = Missing Value Source: NWS Daily Summary

Daily Weather History Graph

Daily Weather History Graph

Search for Another Location

Airport or City:

Trip Planner

Search our weather history database for the weather conditions in past years. The results will help you decide how hot, cold, wet, or windy it might be!

Date:

Astronomy

Jan. 15, 2014 Rise Set
Actual Time 7:41 AM PST 4:41 PM PST
Civil Twilight 7:07 AM PST 5:15 PM PST
Nautical Twilight 6:30 AM PST 5:52 PM PST
Astronomical Twilight 5:54 AM PST 6:28 PM PST
Moon 4:47 PM PST (1/15) 6:58 AM PST (1/15)
Length of Visible Light 10h 07m
Length of Day
8h 59m
Full, 100% of the Moon is Illuminated
Jan 15
Full
Jan 15
Full
Jan 23
Last Quarter
Jan 30
New
Feb 6
First Quarter

Hourly Weather History & Observations

Time (PST) Temp. Windchill Dew Point Humidity Pressure Visibility Wind Dir Wind Speed Gust Speed Precip Events Conditions
12:56 AM 32.5 °F 28.1 °F 28.4 °F 85% 30.48 in 12.0 mi SW 4.6 mph - N/A   Clear
1:56 AM 30.2 °F - 26.4 °F 86% 30.48 in 12.0 mi SSE 1.2 mph - N/A   Clear
2:56 AM 31.3 °F 27.9 °F 29.7 °F 94% 30.49 in 12.0 mi ESE 3.5 mph - N/A   Clear
3:56 AM 28.4 °F - 26.4 °F 92% 30.49 in 12.0 mi Variable 1.2 mph - N/A   Clear
4:56 AM 30.6 °F 25.8 °F 27.9 °F 90% 30.50 in 12.0 mi ESE 4.6 mph - N/A   Clear
5:56 AM 32.5 °F 29.3 °F 27.9 °F 83% 30.48 in 12.0 mi East 3.5 mph - N/A   Clear
6:56 AM 34.3 °F - 26.6 °F 73% 30.47 in 12.0 mi Variable 2.3 mph - N/A   Clear
7:56 AM 28.2 °F - 25.9 °F 91% 30.47 in 12.0 mi Variable 2.3 mph - N/A   Clear
8:56 AM 33.1 °F 30.0 °F 27.5 °F 80% 30.47 in 12.0 mi NW 3.5 mph - N/A   Clear
9:56 AM 35.8 °F 30.9 °F 28.9 °F 76% 30.45 in 12.0 mi ESE 5.8 mph - N/A   Partly Cloudy
10:56 AM 45.5 °F 40.3 °F 29.5 °F 54% 30.45 in 12.0 mi East 10.4 mph - N/A   Mostly Cloudy
11:56 AM 50.0 °F - 31.5 °F 49% 30.43 in 12.0 mi ENE 15.0 mph 23.0 mph N/A   Scattered Clouds
12:56 PM 53.6 °F - 32.2 °F 44% 30.41 in 12.0 mi NW 2.3 mph - N/A   Clear
1:56 PM 52.9 °F - 34.0 °F 49% 30.41 in 12.0 mi West 4.6 mph - N/A   Clear
2:56 PM 54.1 °F - 33.8 °F 46% 30.43 in 12.0 mi SSE 1.2 mph - N/A   Clear
3:56 PM 52.3 °F - 30.2 °F 43% 30.44 in 12.0 mi SSE 4.6 mph - N/A   Partly Cloudy
4:56 PM 48.6 °F - 31.3 °F 51% 30.47 in 12.0 mi ESE 4.6 mph - N/A   Clear
5:56 PM 48.2 °F - 31.5 °F 52% 30.48 in 12.0 mi NNE 4.6 mph - N/A   Clear
6:56 PM 39.9 °F - 28.9 °F 65% 30.49 in 12.0 mi Variable 1.2 mph - N/A   Clear
7:56 PM 37.4 °F - 28.6 °F 70% 30.50 in 12.0 mi SSW 2.3 mph - N/A   Clear
8:56 PM 34.2 °F - 28.0 °F 78% 30.51 in 12.0 mi NNW 1.2 mph - N/A   Clear
9:56 PM 34.2 °F - 28.8 °F 81% 30.51 in 12.0 mi SW 2.3 mph - N/A   Clear
10:56 PM 34.7 °F 31.8 °F 28.8 °F 79% 30.52 in 12.0 mi ENE 3.5 mph - N/A   Clear
11:56 PM 33.8 °F - 28.9 °F 82% 30.51 in 12.0 mi Variable 2.3 mph - N/A   Clear